Ozark, AL

8:16 AM CDT on May 30, 2017 (GMT -0500)
Cairns Army Air Field

Weather History for KOZR - January, 2013

Change the Weather History Date:

Thursday, January 3, 2013

  Actual Average Record
Temperature  
Mean Temperature 43 °F -  
Max Temperature 48 °F 59 °F 78 °F (2000)
Min Temperature 37 °F 37 °F 19 °F (2001)
Degree Days  
Heating Degree Days 22    
Moisture  
Dew Point 41 °F    
Average Humidity 88    
Maximum Humidity 94    
Minimum Humidity 76    
Precipitation  
Precipitation 0.13 in - - ()
Sea Level Pressure  
Sea Level Pressure 30.23 in    
Wind  
Wind Speed 7 mph (NNW)    
Max Wind Speed 10 mph    
Max Gust Speed -    
Visibility 10 miles    
Events Rain    
Averages and records for this station are not official NWS values.
T = Trace of Precipitation, MM = Missing Value Source: NWS Daily Summary

Daily Weather History Graph

Daily Weather History Graph

Search for Another Location

Airport or City:

Trip Planner

Search our weather history database for the weather conditions in past years. The results will help you decide how hot, cold, wet, or windy it might be!

Date:

Astronomy

Jan. 03, 2013 Rise Set
Actual Time 6:42 AM CST 4:53 PM CST
Civil Twilight 6:15 AM CST 5:19 PM CST
Nautical Twilight 5:45 AM CST 5:49 PM CST
Astronomical Twilight 5:15 AM CST 6:19 PM CST
Moon 11:00 PM CST (1/3) 10:18 AM CST (1/3)
Length of Visible Light 11h 04m
Length of Day
10h 10m
Waning Gibbous, 65% of the Moon is Illuminated
Jan 3
Waning Gibbous
Jan 4
Last Quarter
Jan 11
New
Jan 18
First Quarter
Jan 26
Full

Hourly Weather History & Observations

Time (CST) Temp. Windchill Dew Point Humidity Pressure Visibility Wind Dir Wind Speed Gust Speed Precip Events Conditions
12:55 AM 47.8 °F - 42.1 °F 80% 30.16 in 10.0 mi NW 8.1 mph - N/A   Overcast
1:00 AM 48.2 °F - 41.0 °F 76% 30.17 in 10.0 mi NW 8.1 mph - N/A Rain Light Rain
1:53 AM 46.4 °F 41.9 °F 42.8 °F 87% 30.17 in 10.0 mi NNW 9.2 mph - N/A   Overcast
1:55 AM 46.0 °F 41.9 °F 42.1 °F 86% 30.17 in 10.0 mi NNW 8.1 mph - 0.00 in   Overcast
2:29 AM 44.6 °F 39.2 °F 41.0 °F 87% 30.17 in 10.0 mi NNW 10.4 mph - N/A Rain Light Rain
2:55 AM 45.1 °F 41.4 °F 42.1 °F 89% 30.17 in 10.0 mi North 6.9 mph - 0.00 in Rain Light Rain
3:20 AM 44.6 °F 41.4 °F 42.8 °F 93% 30.16 in 10.0 mi North 5.8 mph - N/A   Mostly Cloudy
3:54 AM 44.6 °F 39.7 °F 41.0 °F 87% 30.18 in 10.0 mi North 9.2 mph - N/A Rain Light Rain
3:55 AM 44.8 °F 39.4 °F 41.5 °F 88% 30.18 in 10.0 mi North 10.4 mph - 0.00 in Rain Light Rain
4:45 AM 44.6 °F 39.7 °F 41.0 °F 87% 30.17 in 10.0 mi North 9.2 mph - N/A Rain Light Rain
4:47 AM 44.6 °F 39.2 °F 41.0 °F 87% 30.17 in 10.0 mi North 10.4 mph - N/A Rain Light Rain
4:55 AM 43.7 °F 39.1 °F 41.4 °F 91% 30.17 in 10.0 mi North 8.1 mph - 0.01 in Rain Light Rain
5:32 AM 42.8 °F 38.6 °F 41.0 °F 93% 30.19 in 10.0 mi NNW 6.9 mph - N/A Rain Light Rain
5:35 AM 42.8 °F 39.3 °F 41.0 °F 93% 30.19 in 10.0 mi North 5.8 mph - N/A Rain Light Rain
5:45 AM 42.8 °F 40.1 °F 41.0 °F 93% 30.20 in 10.0 mi NNW 4.6 mph - N/A Rain Light Rain
5:55 AM 43.3 °F 39.2 °F 41.4 °F 93% 30.20 in 10.0 mi NNW 6.9 mph - 0.01 in Rain Light Rain
6:18 AM 42.8 °F 38.6 °F 41.0 °F 93% 30.20 in 10.0 mi NNW 6.9 mph - N/A Rain Light Rain
6:55 AM 43.3 °F 41.7 °F 41.4 °F 93% 30.22 in 8.0 mi NNW 3.5 mph - 0.01 in Rain Light Rain
7:32 AM 42.8 °F 40.1 °F 41.0 °F 93% 30.23 in 8.0 mi NW 4.6 mph - N/A Rain Light Rain
7:55 AM 43.3 °F 39.2 °F 41.7 °F 94% 30.22 in 10.0 mi North 6.9 mph - 0.02 in Rain Light Rain
7:56 AM 42.8 °F 38.6 °F 41.0 °F 93% 30.22 in 10.0 mi North 6.9 mph - N/A Rain Light Rain
8:13 AM 42.8 °F 39.3 °F 41.0 °F 93% 30.22 in 10.0 mi North 5.8 mph - N/A Rain Light Rain
8:55 AM 43.5 °F 39.4 °F 41.7 °F 93% 30.26 in 9.0 mi NNW 6.9 mph - 0.01 in Rain Light Rain
9:09 AM 42.8 °F 38.6 °F 41.0 °F 93% 30.26 in 7.0 mi NNW 6.9 mph - N/A Rain Rain
9:16 AM 44.6 °F - 42.8 °F 93% 30.26 in 8.0 mi Calm Calm - N/A Rain Light Rain
9:26 AM 42.8 °F 39.3 °F 41.0 °F 93% 30.26 in 7.0 mi NNW 5.8 mph - N/A Rain Light Rain
9:33 AM 44.6 °F 42.2 °F 42.8 °F 93% 30.26 in 7.0 mi Variable 4.6 mph - N/A Rain Light Rain
9:50 AM 44.6 °F 40.7 °F 41.0 °F 87% 30.27 in 10.0 mi NNW 6.9 mph - N/A Rain Light Rain
9:55 AM 43.9 °F 42.3 °F 41.9 °F 93% 30.27 in 10.0 mi North 3.5 mph - 0.06 in Rain Light Rain
9:56 AM 44.6 °F - 41.0 °F 87% 30.26 in 10.0 mi Calm Calm - N/A Rain Light Rain
10:07 AM 44.6 °F 40.7 °F 42.8 °F 93% 30.25 in 10.0 mi NNW 6.9 mph - N/A Rain Light Rain
10:14 AM 44.6 °F 40.7 °F 42.8 °F 93% 30.25 in 10.0 mi North 6.9 mph - N/A Rain Light Rain
10:18 AM 44.6 °F 41.4 °F 42.8 °F 93% 30.24 in 10.0 mi North 5.8 mph - N/A Rain Light Rain
10:36 AM 44.6 °F 43.1 °F 42.8 °F 93% 30.23 in 10.0 mi NE 3.5 mph - N/A Rain Light Rain
10:40 AM 44.6 °F 41.4 °F 42.8 °F 93% 30.23 in 10.0 mi NE 5.8 mph - N/A Rain Light Rain
10:41 AM 44.6 °F 41.4 °F 42.8 °F 93% 30.23 in 10.0 mi NE 5.8 mph - N/A Rain Light Rain
10:55 AM 44.4 °F 40.0 °F 42.4 °F 93% 30.25 in 10.0 mi NW 8.1 mph - 0.01 in   Light Drizzle
11:13 AM 44.6 °F 41.4 °F 42.8 °F 93% 30.25 in 10.0 mi North 5.8 mph - N/A   Light Drizzle
11:17 AM 44.6 °F 41.4 °F 42.8 °F 93% 30.24 in 10.0 mi North 5.8 mph - N/A   Light Drizzle
11:31 AM 44.6 °F 40.2 °F 42.8 °F 93% 30.23 in 10.0 mi NNW 8.1 mph - N/A   Overcast
11:42 AM 44.6 °F 39.2 °F 41.0 °F 87% 30.22 in 10.0 mi NNW 10.4 mph - N/A   Overcast
11:48 AM 44.6 °F 40.2 °F 41.0 °F 87% 30.22 in 10.0 mi North 8.1 mph - N/A   Overcast
11:49 AM 44.6 °F 40.2 °F 41.0 °F 87% 30.22 in 10.0 mi North 8.1 mph - N/A   Overcast
11:51 AM 44.6 °F 39.7 °F 41.0 °F 87% 30.22 in 10.0 mi North 9.2 mph - N/A   Overcast
11:55 AM 45.1 °F 40.8 °F 41.9 °F 88% 30.22 in 10.0 mi North 8.1 mph - 0.00 in   Overcast
11:56 AM 44.6 °F 40.7 °F 42.8 °F 93% 30.22 in 10.0 mi North 6.9 mph - N/A   Overcast
12:06 PM 44.6 °F 39.7 °F 42.8 °F 93% 30.22 in 10.0 mi NW 9.2 mph - N/A   Overcast
12:17 PM 44.6 °F 40.7 °F 42.8 °F 93% 30.21 in 10.0 mi NNW 6.9 mph - N/A   Overcast
12:29 PM 46.4 °F 41.9 °F 42.8 °F 87% 30.19 in 10.0 mi NNW 9.2 mph - N/A   Mostly Cloudy
12:31 PM 46.4 °F 41.9 °F 42.8 °F 87% 30.20 in 10.0 mi NNW 9.2 mph - N/A   Mostly Cloudy
12:34 PM 46.4 °F 41.9 °F 42.8 °F 87% 30.20 in 10.0 mi NNW 9.2 mph - N/A   Mostly Cloudy
12:55 PM 46.0 °F 41.9 °F 42.1 °F 86% 30.21 in 10.0 mi NNW 8.1 mph - N/A   Overcast
1:55 PM 45.9 °F 41.2 °F 41.5 °F 85% 30.22 in 10.0 mi NNW 9.2 mph - N/A   Overcast
2:31 PM 46.4 °F 42.9 °F 41.0 °F 81% 30.22 in 10.0 mi NW 6.9 mph - N/A   Overcast
2:38 PM 46.4 °F 44.3 °F 41.0 °F 81% 30.21 in 10.0 mi NNW 4.6 mph - N/A   Overcast
2:55 PM 46.0 °F 43.1 °F 41.2 °F 83% 30.23 in 10.0 mi NNW 5.8 mph - N/A   Overcast
3:16 PM 46.4 °F 43.5 °F 41.0 °F 81% 30.23 in 10.0 mi North 5.8 mph - N/A   Mostly Cloudy
3:31 PM 46.4 °F 41.9 °F 41.0 °F 81% 30.24 in 10.0 mi NNW 9.2 mph - N/A   Mostly Cloudy
3:39 PM 46.4 °F 42.9 °F 41.0 °F 81% 30.24 in 10.0 mi NNW 6.9 mph - N/A   Overcast
3:55 PM 46.0 °F 41.4 °F 40.5 °F 81% 30.24 in 10.0 mi North 9.2 mph - N/A   Overcast
4:55 PM 44.6 °F 41.4 °F 39.6 °F 82% 30.26 in 10.0 mi NNW 5.8 mph - N/A   Clear
5:55 PM 42.8 °F 39.3 °F 39.0 °F 86% 30.28 in 10.0 mi NW 5.8 mph - N/A   Partly Cloudy
6:55 PM 42.3 °F 39.4 °F 38.5 °F 86% 30.29 in 10.0 mi North 4.6 mph - N/A   Clear
7:55 PM 40.3 °F 36.3 °F 37.2 °F 89% 30.31 in 10.0 mi NW 5.8 mph - N/A   Clear
8:55 PM 39.9 °F 34.5 °F 35.1 °F 83% 30.31 in 10.0 mi NNW 8.1 mph - N/A   Clear
9:55 PM 39.2 °F 32.5 °F 33.3 °F 79% 30.32 in 10.0 mi NNW 10.4 mph - N/A   Clear
10:55 PM 38.1 °F 32.9 °F 32.5 °F 80% 30.33 in 10.0 mi Variable 6.9 mph - N/A   Clear
11:55 PM 37.2 °F 31.9 °F 32.0 °F 81% 30.31 in 10.0 mi North 6.9 mph - N/A   Clear